Regional Weather Roundup
Issued by NWS

Home | Current Version | Previous Version | Graphics & Text | Print | Product List | Glossary On
Versions: 1 2 3 4 5 6 7 8 9 10 11 12 13 14 15 16 17 18 19 20 21 22 23 24 25 26 27 28 29 30 31 32 33 34 35 36 37 38 39 40 41 42 43 44 45 46 47 48 49 50
000
ASUS45 KSLC 311710
RWRUT

UTAH REGIONAL WEATHER ROUNDUP
NATIONAL WEATHER SERVICE SALT LAKE CITY UT
1000 AM MST SAT JAN 31 2015

UTZ001>011-023>025-311800-

NORTHERN UTAH

CITY           SKY/WX    TMP DP  RH WIND       PRES   REMARKS
BRIGHAM CITY   SUNNY     38  28  67 W6        30.04R WCI  33
HILL AFB       MOSUNNY   35  26  69 N5        30.03R WCI  31
LOGAN          CLOUDY    33  27  78 CALM      30.07R
OGDEN          MOSUNNY   36  29  75 N6        30.03R WCI  31
PROVO AIRPORT  PTSUNNY   39  34  81 NW9       30.03R WCI  33
SALT LAKE CITY PTSUNNY   38  30  73 NW3       30.03R
VERNAL         CLOUDY    35  35 100 CALM      29.97R FOG
WENDOVER       SUNNY     41  27  56 SE3       30.07S
HEBER CITY     PTSUNNY   36  30  80 E6        30.02R WCI  31
WEST JORDAN    SUNNY     37  34  87 NW7       30.03R WCI  32

$$

UTZ012>022-026-027-311800-

SOUTHERN/CENTRAL UTAH

CITY           SKY/WX    TMP DP  RH WIND       PRES   REMARKS
BLANDING       CLOUDY    33  33 100 NE5       30.00S VSB 3/4 WCI  29
BRYCE CANYON   CLOUDY    33  30  88 N5        29.97R WCI  29
CEDAR CITY     LGT RAIN  37  35  92 N9        29.98R WCI  30
DELTA          CLOUDY    36  33  88 NW12      30.03R WCI  28
HANKSVILLE     CLOUDY    37  36  93 CALM      29.99R
MILFORD        LGT RAIN  36  33  89 N15       30.03R WCI  27
MOAB/CYNLANDS  LGT RAIN  40  37  89 W7        29.94R
PRICE          CLOUDY    37  34  89 CALM      29.93R
ST GEORGE      CLOUDY    48  41  76 W3        29.97R
KANAB            N/A     41  36  81 E5        29.98R

$$

REGIONAL REPORTS     COLORADO/ARIZONA

CITY           SKY/WX    TMP DP  RH WIND       PRES   REMARKS
CRAIG, CO      CLOUDY    32  29  88 SW13      29.94R FOG     WCI  22
GRAND JUNCTION CLOUDY    38  37  97 NW6       29.93R WCI  33
RIFLE          LGT RAIN  34  33  96 CALM      29.93R
MONTROSE       LGT RAIN  35  33  92 CALM      29.94R
CORTEZ         CLOUDY    36  34  92 NW3       29.94R
PAGE, AZ       NOT AVBL
GRAND CANYON   PTSUNNY   41  36  82 NE5       29.93R
KINGMAN        CLOUDY    47  44  90 NE6       29.91R
FLAGSTAFF      CLOUDY    38  34  85 E7        29.93R WCI  33

$$

REGIONAL REPORTS    NEVADA/IDAHO/WYOMING

CITY           SKY/WX    TMP DP  RH WIND       PRES   REMARKS
LAS VEGAS, NV  CLOUDY    52  46  80 S8        29.91R
ELY            PTSUNNY   35  30  82 N8        30.07R WCI  29
ELKO           SUNNY     33  28  81 SW15      30.13R WCI  23
POCATELLO, ID  CLOUDY    31  30  96 W9        30.13R WCI  23
BURLEY         CLOUDY    36  28  73 W10       30.11F WCI  28
EVANSTON, WY   PTSUNNY   30  27  88 SW3       30.00S
ROCK SPRINGS   MOSUNNY   29  26  89 W15       29.96S WCI  18
KEMMERER       CLOUDY    30  28  93 W14       29.98S WCI  20

$$



USA.gov is the U.S. government's official web portal to all federal, state and local government web resources and services.